TimeEST,TemperatureF,Dew PointF,Humidity,Sea Level PressureIn,VisibilityMPH,Wind Direction,Wind SpeedMPH,Gust SpeedMPH,PrecipitationIn,Events,Conditions,WindDirDegrees,DateUTC
12:15 AM,39.2,33.8,81,30.62,10.0,North,5.8,-,N/A,,Clear,360,2012-11-18 05:15:00
12:35 AM,39.2,33.8,81,30.61,10.0,North,6.9,-,N/A,,Clear,360,2012-11-18 05:35:00
12:55 AM,37.4,33.8,87,30.61,10.0,North,6.9,-,N/A,,Clear,360,2012-11-18 05:55:00
1:15 AM,39.2,33.8,81,30.60,10.0,North,5.8,-,N/A,,Clear,10,2012-11-18 06:15:00
1:35 AM,39.2,33.8,81,30.60,10.0,North,6.9,-,N/A,,Clear,350,2012-11-18 06:35:00
1:55 AM,37.4,33.8,87,30.60,10.0,North,8.1,-,N/A,,Clear,10,2012-11-18 06:55:00
2:15 AM,37.4,33.8,87,30.60,10.0,North,6.9,-,N/A,,Clear,360,2012-11-18 07:15:00
2:55 AM,37.4,33.8,87,30.60,10.0,North,6.9,-,N/A,,Clear,350,2012-11-18 07:55:00
3:15 AM,37.4,33.8,87,30.60,10.0,North,5.8,-,N/A,,Clear,350,2012-11-18 08:15:00
3:35 AM,37.4,33.8,87,30.60,10.0,North,5.8,-,N/A,,Clear,350,2012-11-18 08:35:00
3:55 AM,37.4,33.8,87,30.60,10.0,North,6.9,-,N/A,,Clear,360,2012-11-18 08:55:00
4:15 AM,37.4,33.8,87,30.61,10.0,North,5.8,-,N/A,,Partly Cloudy,350,2012-11-18 09:15:00
4:35 AM,37.4,33.8,87,30.61,10.0,North,6.9,-,N/A,,Mostly Cloudy,360,2012-11-18 09:35:00
4:55 AM,39.2,35.6,87,30.61,10.0,North,6.9,-,N/A,,Overcast,360,2012-11-18 09:55:00
5:15 AM,39.2,35.6,87,30.61,10.0,North,6.9,-,N/A,,Overcast,360,2012-11-18 10:15:00
5:35 AM,39.2,35.6,87,30.62,10.0,North,6.9,-,N/A,,Overcast,360,2012-11-18 10:35:00
5:55 AM,39.2,37.4,93,30.62,10.0,North,6.9,-,N/A,,Overcast,10,2012-11-18 10:55:00
6:15 AM,41.0,37.4,87,30.62,10.0,North,8.1,-,N/A,,Overcast,360,2012-11-18 11:15:00
6:35 AM,41.0,37.4,87,30.63,10.0,North,5.8,-,N/A,,Overcast,360,2012-11-18 11:35:00
6:55 AM,41.0,37.4,87,30.63,10.0,North,5.8,-,N/A,,Overcast,360,2012-11-18 11:55:00
7:15 AM,42.8,37.4,81,30.63,10.0,North,5.8,-,N/A,,Overcast,360,2012-11-18 12:15:00
7:35 AM,42.8,37.4,81,30.63,10.0,North,5.8,-,N/A,,Overcast,10,2012-11-18 12:35:00
7:55 AM,44.6,37.4,76,30.63,10.0,NNE,9.2,-,N/A,,Overcast,30,2012-11-18 12:55:00
8:15 AM,44.6,37.4,76,30.64,10.0,NE,9.2,-,N/A,,Overcast,40,2012-11-18 13:15:00
8:35 AM,46.4,35.6,66,30.64,10.0,ENE,10.4,-,N/A,,Scattered Clouds,60,2012-11-18 13:35:00
8:55 AM,46.4,35.6,66,30.64,10.0,ENE,13.8,-,N/A,,Clear,60,2012-11-18 13:55:00
9:15 AM,46.4,37.4,71,30.64,10.0,ENE,13.8,18.4,N/A,,Partly Cloudy,60,2012-11-18 14:15:00
9:35 AM,46.4,37.4,71,30.64,10.0,NE,11.5,-,N/A,,Mostly Cloudy,50,2012-11-18 14:35:00
9:55 AM,46.4,39.2,76,30.64,10.0,NE,11.5,16.1,N/A,,Overcast,50,2012-11-18 14:55:00
10:15 AM,46.4,39.2,76,30.64,10.0,NE,13.8,18.4,N/A,,Scattered Clouds,50,2012-11-18 15:15:00
10:35 AM,48.2,39.2,71,30.64,10.0,NE,12.7,18.4,N/A,,Partly Cloudy,50,2012-11-18 15:35:00
10:55 AM,48.2,39.2,71,30.64,10.0,NE,13.8,-,N/A,,Scattered Clouds,50,2012-11-18 15:55:00
11:15 AM,48.2,39.2,71,30.63,10.0,NE,13.8,18.4,N/A,,Overcast,50,2012-11-18 16:15:00
11:35 AM,48.2,39.2,71,30.62,10.0,ENE,9.2,17.3,N/A,,Overcast,60,2012-11-18 16:35:00
11:55 AM,48.2,39.2,71,30.61,10.0,ENE,11.5,18.4,N/A,,Overcast,60,2012-11-18 16:55:00
12:15 PM,48.2,39.2,71,30.61,10.0,NE,11.5,19.6,N/A,,Overcast,50,2012-11-18 17:15:00
12:35 PM,48.2,39.2,71,30.61,10.0,ENE,13.8,-,N/A,,Overcast,60,2012-11-18 17:35:00
12:55 PM,48.2,39.2,71,30.60,10.0,ENE,13.8,-,N/A,,Overcast,60,2012-11-18 17:55:00
1:15 PM,48.2,39.2,71,30.60,10.0,NE,8.1,-,N/A,,Overcast,50,2012-11-18 18:15:00
1:35 PM,48.2,39.2,71,30.59,10.0,NE,12.7,-,N/A,,Overcast,40,2012-11-18 18:35:00
1:55 PM,48.2,39.2,71,30.59,10.0,ENE,13.8,18.4,N/A,,Overcast,70,2012-11-18 18:55:00
2:15 PM,48.2,39.2,71,30.59,10.0,ENE,12.7,16.1,N/A,,Overcast,60,2012-11-18 19:15:00
2:35 PM,48.2,39.2,71,30.59,10.0,ENE,10.4,-,N/A,,Mostly Cloudy,70,2012-11-18 19:35:00
2:55 PM,48.2,37.4,66,30.58,10.0,ENE,15.0,18.4,N/A,,Partly Cloudy,60,2012-11-18 19:55:00
3:15 PM,48.2,35.6,62,30.59,10.0,NE,10.4,19.6,N/A,,Clear,50,2012-11-18 20:15:00
3:35 PM,48.2,35.6,62,30.59,10.0,NE,9.2,-,N/A,,Scattered Clouds,40,2012-11-18 20:35:00
3:55 PM,46.4,35.6,66,30.59,10.0,ENE,12.7,17.3,N/A,,Scattered Clouds,60,2012-11-18 20:55:00
4:15 PM,46.4,35.6,66,30.58,10.0,NE,9.2,17.3,N/A,,Partly Cloudy,50,2012-11-18 21:15:00
4:35 PM,46.4,35.6,66,30.58,10.0,NE,9.2,-,N/A,,Partly Cloudy,50,2012-11-18 21:35:00
4:55 PM,46.4,35.6,66,30.58,10.0,NE,8.1,-,N/A,,Mostly Cloudy,50,2012-11-18 21:55:00
5:15 PM,46.4,35.6,66,30.59,10.0,ENE,10.4,-,N/A,,Mostly Cloudy,60,2012-11-18 22:15:00
5:35 PM,46.4,35.6,66,30.59,10.0,ENE,9.2,-,N/A,,Mostly Cloudy,70,2012-11-18 22:35:00
5:55 PM,46.4,35.6,66,30.58,10.0,ENE,10.4,16.1,N/A,,Mostly Cloudy,60,2012-11-18 22:55:00
6:15 PM,46.4,35.6,66,30.58,10.0,ENE,11.5,17.3,N/A,,Scattered Clouds,60,2012-11-18 23:15:00
6:35 PM,46.4,35.6,66,30.58,10.0,NE,10.4,-,N/A,,Mostly Cloudy,50,2012-11-18 23:35:00
6:55 PM,46.4,37.4,71,30.58,10.0,NE,9.2,-,N/A,,Overcast,50,2012-11-18 23:55:00
7:15 PM,46.4,37.4,71,30.58,10.0,NE,10.4,16.1,N/A,,Overcast,50,2012-11-19 00:15:00
7:35 PM,46.4,37.4,71,30.58,10.0,ENE,10.4,18.4,N/A,,Overcast,60,2012-11-19 00:35:00
7:55 PM,46.4,37.4,71,30.57,10.0,ENE,13.8,18.4,N/A,,Overcast,60,2012-11-19 00:55:00
8:15 PM,46.4,37.4,71,30.58,10.0,NE,8.1,-,N/A,,Overcast,50,2012-11-19 01:15:00
8:35 PM,48.2,37.4,66,30.58,10.0,NE,6.9,-,N/A,,Overcast,50,2012-11-19 01:35:00
8:55 PM,48.2,37.4,66,30.57,10.0,NE,9.2,-,N/A,,Overcast,50,2012-11-19 01:55:00
9:15 PM,48.2,37.4,66,30.57,10.0,NE,9.2,-,N/A,,Overcast,40,2012-11-19 02:15:00
9:35 PM,46.4,37.4,71,30.56,10.0,NE,9.2,-,N/A,,Overcast,50,2012-11-19 02:35:00
9:55 PM,46.4,37.4,71,30.56,10.0,NE,6.9,-,N/A,,Overcast,40,2012-11-19 02:55:00
10:15 PM,46.4,39.2,76,30.55,10.0,NE,6.9,-,N/A,,Overcast,50,2012-11-19 03:15:00
10:35 PM,48.2,39.2,71,30.54,10.0,ENE,9.2,-,N/A,,Overcast,60,2012-11-19 03:35:00
10:55 PM,48.2,39.2,71,30.54,10.0,ENE,11.5,17.3,N/A,,Overcast,70,2012-11-19 03:55:00
11:35 PM,48.2,37.4,66,30.54,10.0,East,10.4,-,N/A,,Overcast,80,2012-11-19 04:35:00